Regional Weather Roundup
Issued by NWS

Home | Current Version | Previous Version | Text Only | Print | Product List | Glossary Off
Versions: 1 2 3 4 5 6 7 8 9 10 11 12 13 14 15 16 17 18 19 20 21 22 23 24 25 26 27 28 29 30 31 32 33 34 35 36 37 38 39 40 41 42 43 44 45 46 47 48 49 50

000
ASUS44 KMEG 080300
RWRTN
TENNESSEE HOURLY STATE WEATHER ROUNDUP
NATIONAL WEATHER SERVICE MEMPHIS TN
900 PM CST SUN FEB 07 2016

TNZ002-004-019-021-049-052-054-088>092-080400-
WEST TENNESSEE

CITY           SKY/WX    TMP DP  RH WIND       PRES   REMARKS
MEMPHIS INTL   MOCLDY    51  31  46 SW7       29.98F
NWS MEMPHIS      N/A     49 N/A N/A MISG        N/A
JACKSON        CLEAR     46  30  53 SW8       29.95F
DYERSBURG      CLOUDY    48  30  49 SW14      29.96S
UNION CITY     MOCLDY    46  34  61 SW7       29.91F
PARIS          PTCLDY    45  28  53 SW14      29.91F
$$

TNZ008-025-027-028-033-062-065-066-080400-
NORTH MIDDLE TENNESSEE

CITY           SKY/WX    TMP DP  RH WIND       PRES   REMARKS
NASHVILLE      PTCLDY    49  19  30 SW7       29.93F
CLARKSVILLE    MOCLDY    49  26  41 SW9       29.91F
COOKEVILLE     CLEAR     34  28  80 SW3       29.91F
CROSSVILLE     PTCLDY    39  21  48 CALM      29.93F
$$

TNZ061-075-076-078-094-096-097-080400-
SOUTH MIDDLE TENNESSEE

CITY           SKY/WX    TMP DP  RH WIND       PRES   REMARKS
TULLAHOMA      CLEAR     37  23  56 S3        29.96S
WINCHESTER     CLEAR     34  28  80 CALM      29.96F
MCMINNVILLE    CLEAR     43  23  45 S3        29.94F
COLUMBIA       CLEAR     43  27  52 SW9       29.94S
SHELBYVILLE    CLEAR     45  25  45 S5        29.96S
$$

TNZ017-018-042-046-047-080400-
NORTHEAST TENNESSEE

CITY           SKY/WX    TMP DP  RH WIND       PRES   REMARKS
TRI CITIES     PTCLDY    32  24  72 CALM      29.92F
$$

TNZ012-013-036-069-073-074-080400-
CENTRAL EAST TENNESSEE

CITY           SKY/WX    TMP DP  RH WIND       PRES   REMARKS
KNOXVILLE      CLEAR     41  22  46 SW3       29.94F
OAK RIDGE      CLEAR     37  26  64 CALM      29.95F
GATLINBURG     CLEAR     30  21  69 E5        29.93F WCI  25
$$

TNZ083-085-099-080400-
SOUTHEAST TENNESSEE

CITY           SKY/WX    TMP DP  RH WIND       PRES   REMARKS
CHATTANOOGA    PTCLDY    42  26  53 CALM      29.97S
$$

SKY/WX REPORTED AS FAIR MEANS FEW OR NO CLOUDS BELOW
12 THOUSAND FEET.




USA.gov is the U.S. government's official web portal to all federal, state and local government web resources and services.